DECAYED

STARLINK-1907, 47177 (Decayed)

Orbit data source: Space-Track

STARLINK-1907, 47177 was a payload satellite owned by SpaceX/Seattle (US) in LEO that was launched on Wed, 25 Nov 2020 UTC via an FALCON 9 launch vehicle from the Air Force Eastern Test Range (AFETR). Payload-class satellites include a variety of spacecraft equipped with specific instruments for various scientific and technological missions. These include communications satellites like Starlink; space stations such as the ISS; scientific satellites like the Hubble; Earth observation satellites from companies like Planet Labs, Umbra, and HawkEye 360; GPS; miniature CubeSats for education and research; and military/defense satellites.

Not visible in the next 10 days
Identifier
47177, 2020-088BH
Orbit
Decayed
Country
Flag of USUS
Related business
Manufacturer
SpaceX/Seattle
Mission
Decayed Commercial Communications
Bus & Motor
STARLINK, Unknown motor
Mass
260 kg wet, ~248 kg dry
Launch date (UTC)
2020-11-25 (6 years ago)
Launch vehicle
FALCON 9
Launch site
Air Force Eastern Test Range (AFETR)
Object type
Payload
Rocket body
Debris
Shape & HBR
Box + 1 Pan, 10.1 m
Radar Cross Section
13.562 m², Large (>1 m²)

Expand to show TLE details & history
Last TLE update: 1 year ago

TLE from 1 year ago
0 STARLINK-1907
1 47177U 20088BH  25064.04245257  .21934837  12671-4  46944-3 0  9998
2 47177  53.0150 105.2887 0009893 326.0555 111.3872 16.45997355237197
Epoch: 2025-03-05T01:01Z
TLE epoch observation values (Epoch: 2025-03-05T01:01:07.902Z)
Latitude
51.4184°
Longitude
-3.20897°
Altitude
158.333 km
Speed
7.816 km/s
True Right ascension
11h 40m 26s
True Declination
51° 14' 07"
Sunlit
Object was in full shadow at epoch
Visualization orbit readout
Latitude
Unknown
Longitude
Unknown
Altitude
Unknown
Speed
Unknown
Apparent Right ascension
Unknown
Apparent Declination
Unknown
Sunlit
N/A
Visualization observer readout
Local Sidereal Time
00:39:37
Azimuth
Unknown
Elevation
Unknown
Doppler factor
Unknown
Orbital elements
Apogee altitude
156.649 km
Perigee altitude
143.732 km
Semi-major axis
6,528.328 km
Eccentricity
0.00099
Inclination
53.015°
RAAN
105.2887°
Arg. of periapsis
326.0555°
True anomaly
111.49271°
Mean anomaly
111.3872°
Eccentric anomaly
111.43996°
Mean motion
4.11472 °/min
Orbital period
87.49 mins
BSTAR
0.00046944
Loading maneuver chart data...
Computing Atmospheric mass density...

Documentation

Showing up to 5 results
|